Location: Alsip
(41.6689°N, 87.7387°W)
Time: 15:09:07
(UTC+00:00)

Cosmos 2218 Rocket - Pass Details

Date: 14 July 2020
Orbit: 955 x 1007 km, 82.9° (Epoch: 12 August)

Event Time Altitude Azimuth Distance (km) Brightness Sun altitude
Exits shadow 04:09:49 42° 144° (SE) 1,374 4.3 -22.0°
Maximum altitude 04:11:39 57° 92° (E) 1,150 4.2 -22.2°
Drops below altitude 10° 04:17:47 10° 16° (NNE) 2,738 7.0 -22.7°
Sets 04:20:19 0° 12° (NNE) 3,682 7.9 -22.9°
